Location: Newark
(33.6333°S, 78.8500°W)
Time: 21:27:43
(UTC+00:00)

Tiros 1 despin weight - Pass Details

Date: 26 September 2019
Orbit: 593 x 643 km, 48.2° (Epoch: 20 October)

Event Time Altitude Azimuth Distance (km) Brightness Sun altitude
Rises 04:56:02 0° 256° (WSW) 2,883 - -55.1°
Reaches altitude 10° 04:59:07 10° 234° (SW) 1,992 - -55.2°
Maximum altitude 05:02:02 16° 194° (SSW) 1,622 - -55.2°
Drops below altitude 10° 05:04:59 10° 155° (SSE) 2,017 - -55.2°
Sets 05:08:08 0° 133° (SE) 2,938 - -55.2°
